Regional Weather Roundup
Issued by NWS

Home | Current Version | Previous Version | Text Only | Print | Product List | Glossary On
Versions: 1 2 3 4 5 6 7 8 9 10 11 12 13 14 15 16 17 18 19 20 21 22 23 24 25 26 27
000
ASCA42 TJSJ 271810
RWRPR
PUERTO RICO/U.S. VIRGIN ISLANDS HOURLY WEATHER ROUNDUP
NATIONAL WEATHER SERVICE SAN JUAN PR
200 PM AST FRI MAY 27 2016

PRZ001-004-271900-
PUERTO RICO

CITY           SKY/WX    TMP DP  RH WIND       PRES   REMARKS
SAN JUAN LMM   PTSUNNY   86  72  62 VRB6      29.93F HX  92
AGUADILLA      MOSUNNY   82  72  69 NE5       29.95F
CEIBA          SUNNY     84  73  70 S12       29.96F HX  91
$$

PRZ006-007-271900-
U.S. VIRGIN ISLANDS

CITY           SKY/WX    TMP DP  RH WIND       PRES   REMARKS
CHARLOTTE AMA  PTSUNNY   88  77  70 SE13      29.95F HX 100
CHRISTIANSTED  MOSUNNY   88  75  66 SE12      29.96F HX  97
$$

HOURLY WEATHER ROUNDUP FOR THE NEWS MEDIA

CITY           SKY/WX    TMP DP  RH WIND       PRES   REMARKS
ORLANDO        PTSUNNY   88  64  44 E13       30.03F
NEW YORK       MOSUNNY   75  63  66 S9        30.08S
NEWARK         MOSUNNY   84  65  52 SE12      30.03F
CHICAGO        PTSUNNY   80  65  59 S9        29.87F
HARTFORD       MOSUNNY   78  63  59 S12       30.08S
BOSTON         CLOUDY    63  56  78 E12       30.08F
DALLAS         PTSUNNY   71  66  84 SE10      29.75F
PHILADELPHIA   MOSUNNY   88  65  46 SW12      30.05F HX  90
LOS ANGELES    PTSUNNY   65  56  72 W8        29.94F
WASHINGTON DC  PTSUNNY   87  66  49 S7        30.06F



USA.gov is the U.S. government's official web portal to all federal, state and local government web resources and services.